{"data":{"norad_id":67575,"epoch":"2026-05-25T03:38:30.333408Z","epoch_age_seconds":62127,"freshness":"FRESH","line1":"1 67575U 26016Q   26145.15173997  .00018141  00000+0  56319-3 0  9996","line2":"2 67575  97.2854 205.5077 0001155  99.7038 260.4335 15.33427859 18583","mean_motion":15.33427859,"eccentricity":0.0001155,"inclination_deg":97.2854,"raan_deg":205.5077,"arg_perigee_deg":99.7038,"mean_anomaly_deg":260.4335,"bstar":0.00056319,"rev_number":1858,"period_min":93.90725436142,"perigee_km":464.80372355883,"apogee_km":466.38462546014,"semimajor_km":6843.7311745095,"source":"CELESTRAK","updated_at":"2026-05-25T13:38:21.616100Z"}}